This demonstration page uses our WeatherBlox Daily Observations layout. Learn more.

Left ArrowRight Arrow

39.01783, -85.05884

Hourly Observations for March 8, 2015

Temp ( °F °C ) Dew Point ( °F °C ) Humidity (%) Winds ( mph kmh ) Pressure ( in mb ) Visibility ( mi km ) Precip ( " mm )
12:52 am 00:52 Clear 38 3.3 26 -3.3 62 62 SW 7 11 30.20 1023 10 16 0.00 0.00
1:52 am 01:52 Clear 38 3.3 26 -3.3 62 62 WSW 5 7 30.21 1023 10 16 0.00 0.00
3:52 am 03:52 Clear 37 2.8 26 -3.3 65 65 WSW 5 7 30.22 1023 10 16 0.00 0.00
4:52 am 04:52 Clear 36 2.2 26 -3.3 67 67 W 6 9 30.21 1023 10 16 0.00 0.00
5:52 am 05:52 Clear 35 1.7 26 -3.3 70 70 WSW 5 7 30.22 1024 10 16 0.00 0.00
6:52 am 06:52 Partly Cloudy 33 0.6 25 -3.9 72 72 W 8 13 30.24 1024 10 16 0.00 0.00
7:52 am 07:52 Mostly Clear 31 -0.6 25 -3.9 79 79 SW 5 7 30.24 1024 10 16 0.00 0.00
8:52 am 08:52 Mostly Sunny 32 0 26 -3.3 79 79 Calm 30.25 1024 10 16 0.00 0.00
9:52 am 09:52 Mostly Sunny 37 2.8 28 -2.2 70 70 SW 6 9 30.27 1025 10 16 0.00 0.00
10:52 am 10:52 Partly Cloudy 42 5.6 30 -1.1 62 62 Calm 30.26 1025 10 16 0.00 0.00
11:52 am 11:52 Mostly Cloudy 44 6.7 29 -1.7 55 55 Calm 30.26 1025 10 16 0.00 0.00
12:52 pm 12:52 Mostly Cloudy 47 8.3 30 -1.1 52 52 WNW 5 7 30.27 1025 10 16 0.00 0.00
1:52 pm 13:52 Mostly Cloudy 50 10 29 -1.7 44 44 VRB 3 6 30.26 1025 10 16 0.00 0.00
2:52 pm 14:52 Mostly Cloudy 52 11 30 -1 44 44 Calm 30.21 1023 10 16 0.00 0.00
3:52 pm 15:52 Mostly Cloudy 51 10.6 29 -1.7 43 43 Calm 30.19 1022 10 16 0.00 0.00
4:52 pm 16:52 Mostly Cloudy 51 10.6 30 -1.1 44 44 S 7 11 30.18 1022 10 16 0.00 0.00
5:52 pm 17:52 Mostly Cloudy 51 10.6 29 -1.7 43 43 Calm 30.16 1022 10 16 0.00 0.00
6:52 pm 18:52 Mostly Cloudy 49 9.4 29 -1.7 46 46 S 5 7 30.16 1021 10 16 0.00 0.00
7:52 pm 19:52 Mostly Cloudy 47 8.3 28 -2.2 48 48 Calm 30.16 1021 10 16 0.00 0.00
8:52 pm 20:52 Mostly Cloudy 45 7.2 30 -1.1 56 56 S 6 9 30.16 1021 10 16 0.00 0.00
9:52 pm 21:52 Mostly Cloudy 44 6.7 29 -1.7 55 55 S 3 6 30.17 1022 10 16 0.00 0.00
10:52 pm 22:52 Mostly Cloudy 40 4.4 30 -1.1 68 68 S 5 7 30.16 1021 10 16 0.00 0.00
11:52 pm 23:52 Partly Cloudy 38 3.3 29 -1.7 70 70 SSW 7 11 30.16 1022 10 16 0.00 0.00

Powered by AerisWeather